Погода в Фащевке

Украина / Луганская область     48°16′19″N   38°36′51″E
темп.,
°C
ветер,
м/с
пор.,
м/с
влажн.,
%
обл.,
%
осадки,
мм/ч
давл.,
гПа
погр.,
м
16 сентября, чт
чт1600:00+13с33424 0.0 101639
03:00+11ссв22435 0.0 101617
06:00+10с22445 0.0 101711
09:00+16с453387 0.0 1017454
12:00+18с5531100 0.0 10171185
15:00+20с442743 0.0 10161622
18:00+17с33331 0.0 101653
21:00+13ссв33430 0.0 101833
17 сентября, пт
пт1700:00+12всв33490 0.0 101839
03:00+11всв225218 0.0 101811
06:00+10в11555 0.0 101810
09:00+16вюв21385 0.0 1018362
12:00+20ююз222980 0.0 10161727
15:00+22юз33245 0.0 10151974
18:00+19юз11309 0.0 101511
21:00+15ююв223565 0.0 101511
18 сентября, сб
сб1800:00+14ююз114399 0.0 101511
03:00+13ююв224511 0.0 101511
06:00+12ююв224494 0.0 101512
09:00+17ююв3438100 0.0 1015322
12:00+22ююв45366 0.0 10141700
15:00+24ю66315 0.0 10132309
18:00+21ю4638100 0.0 1013152
21:00+18ю2246100 0.0 101319
19 сентября, вс
вс1900:00+17юв2346100 0.0 101343
03:00+16юв3856100 0.0 1012264
06:00+16вюв385698 0.0 1012253
09:00+18ююв6860100 0.1 1012535
12:00+20ю6951100 0.0 10121116
15:00+17юз5872100 0.4 1012659
18:00+16ююв3878100 0.5 1011383
21:00+15ююв4893100 4.8 1010306
20 сентября, пн
пн2000:00+15ю5119797 6.6 1009446
03:00+14ююв479750 7.4 1009227
06:00+14ю469868 0.0 1008192
09:00+18ююз5773100 0.4 1009496
12:00+21юз5751100 0.2 10091521
15:00+23зюз69376 0.3 10092387
18:00+19з59425 0.0 1011395
21:00+17зюз1248100 0.0 101248